This is the latest recevied weather packets stored in our database for station/object RUSSARO. If no packets are shown the sender has not sent any weather packets the latest 10 day(s).
| Time | Temp. | Humidity | Pressure | Rain* | Wind** | Luminosity | Snow |
|---|---|---|---|---|---|---|---|
| 1778130446 | 6.11° C | 58% | 1015.6 hPa | 0 mm | - | - | - |
| 1778128046 | 5° C | 58% | 1015.5 hPa | 0 mm | - | - | - |
| 1778126847 | 4.44° C | 60% | 1015.5 hPa | 0 mm | - | - | - |
| 1778125647 | 3.89° C | 64% | 1015.4 hPa | 0 mm | - | - | - |
| 1778124447 | 3.89° C | 64% | 1015.2 hPa | 0 mm | - | - | - |
| 1778123247 | 3.33° C | 64% | 1015.2 hPa | 0 mm | - | - | - |
| 1778122046 | 3.33° C | 66% | 1015.2 hPa | 0 mm | - | - | - |
| 1778120846 | 3.33° C | 69% | 1015.1 hPa | 0 mm | - | - | - |
| 1778119646 | 3.33° C | 66% | 1015.1 hPa | 0 mm | - | - | - |
| 1778118446 | 3.33° C | 69% | 1015.1 hPa | 0 mm | - | - | - |
| 1778117246 | 3.33° C | 70% | 1015.1 hPa | 0 mm | - | - | - |
| 1778116046 | 3.33° C | 66% | 1014.9 hPa | 0 mm | - | - | - |
| 1778114845 | 3.89° C | 62% | 1014.9 hPa | 0 mm | - | - | - |
| 1778113646 | 3.89° C | 63% | 1014.6 hPa | 0 mm | - | - | - |
| 1778112445 | 3.89° C | 63% | 1014.6 hPa | 0 mm | - | - | - |
| 1778111247 | 3.89° C | 64% | 1014.6 hPa | 0 mm | - | - | - |
| 1778110045 | 3.33° C | 70% | 1014.6 hPa | 0 mm | - | - | - |
| 1778108847 | 3.89° C | 69% | 1014.6 hPa | 0 mm | - | - | - |
| 1778107645 | 3.89° C | 67% | 1014.7 hPa | 0 mm | - | - | - |
| 1778106446 | 4.44° C | 63% | 1014.6 hPa | 0 mm | - | - | - |
| 1778105246 | 4.44° C | 70% | 1014.6 hPa | 0 mm | - | - | - |
| 1778104045 | 4.44° C | 66% | 1014.6 hPa | 0 mm | - | - | - |
| 1778102846 | 4.44° C | 68% | 1014.5 hPa | 0 mm | - | - | - |
| 1778101645 | 5° C | 71% | 1014.5 hPa | 0 mm | - | - | - |
| 1778100445 | 5° C | 75% | 1014.5 hPa | 0 mm | - | - | - |
* Rain latest hour (hover to see other rain measurements)
** Current wind speed in m/s (hover to see current wind gust speed)